TimeMST,TemperatureF,Dew PointF,Humidity,Sea Level PressureIn,VisibilityMPH,Wind Direction,Wind SpeedMPH,Gust SpeedMPH,PrecipitationIn,Events,Conditions,WindDirDegrees,DateUTC
12:15 AM,57.2,6.8,13,30.05,10.0,North,8.1,-,N/A,,Clear,350,2013-04-18 07:15:00
12:35 AM,57.2,6.8,13,30.06,10.0,North,5.8,-,N/A,,Clear,350,2013-04-18 07:35:00
12:55 AM,55.4,6.8,14,30.06,10.0,NW,8.1,-,N/A,,Clear,320,2013-04-18 07:55:00
1:15 AM,55.4,6.8,14,30.06,10.0,Calm,Calm,-,N/A,,Clear,0,2013-04-18 08:15:00
1:35 AM,53.6,6.8,15,30.06,9.0,NNW,9.2,-,N/A,,Clear,340,2013-04-18 08:35:00
1:55 AM,55.4,6.8,14,30.06,10.0,NNW,9.2,-,N/A,,Clear,340,2013-04-18 08:55:00
2:15 AM,55.4,8.6,15,30.05,10.0,NNW,10.4,-,N/A,,Clear,330,2013-04-18 09:15:00
2:35 AM,53.6,8.6,16,30.06,10.0,NE,6.9,-,N/A,,Clear,50,2013-04-18 09:35:00
2:55 AM,53.6,6.8,15,30.07,10.0,North,9.2,-,N/A,,Clear,350,2013-04-18 09:55:00
3:15 AM,53.6,6.8,15,30.07,10.0,North,10.4,-,N/A,,Clear,350,2013-04-18 10:15:00
3:35 AM,51.8,6.8,16,30.08,10.0,North,9.2,-,N/A,,Clear,350,2013-04-18 10:35:00
3:55 AM,50.0,6.8,17,30.08,10.0,North,9.2,-,N/A,,Clear,360,2013-04-18 10:55:00
4:15 AM,48.2,6.8,19,30.09,10.0,North,9.2,-,N/A,,Clear,350,2013-04-18 11:15:00
4:35 AM,48.2,6.8,19,30.09,10.0,NNW,11.5,-,N/A,,Clear,340,2013-04-18 11:35:00
4:55 AM,50.0,8.6,19,30.10,10.0,NNW,10.4,-,N/A,,Clear,330,2013-04-18 11:55:00
5:15 AM,50.0,8.6,19,30.10,10.0,NNW,15.0,19.6,N/A,,Clear,330,2013-04-18 12:15:00
5:35 AM,51.8,8.6,18,30.10,10.0,NNW,12.7,19.6,N/A,,Clear,330,2013-04-18 12:35:00
5:55 AM,50.0,8.6,19,30.11,10.0,NNW,16.1,-,N/A,,Clear,330,2013-04-18 12:55:00
6:15 AM,50.0,8.6,19,30.12,10.0,NW,13.8,-,N/A,,Clear,320,2013-04-18 13:15:00
6:35 AM,51.8,8.6,18,30.13,9.0,North,9.2,-,N/A,,Clear,350,2013-04-18 13:35:00
6:55 AM,51.8,8.6,18,30.14,10.0,NE,4.6,-,N/A,,Clear,40,2013-04-18 13:55:00
7:15 AM,53.6,8.6,16,30.14,10.0,North,8.1,-,N/A,,Clear,350,2013-04-18 14:15:00
7:35 AM,55.4,8.6,15,30.14,10.0,NNW,15.0,-,N/A,,Clear,340,2013-04-18 14:35:00
7:55 AM,57.2,8.6,14,30.15,10.0,NNW,15.0,20.7,N/A,,Clear,340,2013-04-18 14:55:00
8:15 AM,59.0,8.6,14,30.15,10.0,NNW,13.8,-,N/A,,Clear,340,2013-04-18 15:15:00
8:35 AM,59.0,8.6,14,30.15,10.0,NNW,16.1,-,N/A,,Clear,340,2013-04-18 15:35:00
8:55 AM,62.6,8.6,12,30.15,10.0,NNW,12.7,18.4,N/A,,Clear,340,2013-04-18 15:55:00
9:15 AM,62.6,8.6,12,30.15,10.0,NNW,12.7,-,N/A,,Clear,340,2013-04-18 16:15:00
9:35 AM,64.4,6.8,10,30.16,9.0,North,9.2,17.3,N/A,,Clear,350,2013-04-18 16:35:00
9:55 AM,64.4,6.8,10,30.16,10.0,NNW,8.1,-,N/A,,Clear,330,2013-04-18 16:55:00
10:15 AM,64.4,6.8,10,30.16,10.0,North,10.4,-,N/A,,Clear,360,2013-04-18 17:15:00
10:35 AM,66.2,5.0,9,30.16,10.0,NNW,6.9,-,N/A,,Clear,340,2013-04-18 17:35:00
10:55 AM,64.4,6.8,10,30.16,10.0,NNW,6.9,-,N/A,,Clear,330,2013-04-18 17:55:00
11:15 AM,66.2,1.4,8,30.15,10.0,NNW,3.5,16.1,N/A,,Clear,340,2013-04-18 18:15:00
11:35 AM,66.2,5.0,9,30.14,10.0,NW,5.8,-,N/A,,Clear,320,2013-04-18 18:35:00
11:55 AM,68.0,5.0,8,30.14,10.0,NNE,10.4,17.3,N/A,,Clear,20,2013-04-18 18:55:00
12:15 PM,68.0,3.2,8,30.14,10.0,ENE,5.8,-,N/A,,Clear,60,2013-04-18 19:15:00
12:35 PM,68.0,1.4,7,30.13,10.0,NNE,4.6,-,N/A,,Clear,20,2013-04-18 19:35:00
12:55 PM,68.0,3.2,8,30.13,10.0,West,3.5,-,N/A,,Clear,280,2013-04-18 19:55:00
1:35 PM,69.8,3.2,7,30.11,10.0,South,5.8,-,N/A,,Clear,190,2013-04-18 20:35:00
1:55 PM,69.8,3.2,7,30.11,10.0,WSW,3.5,-,N/A,,Clear,250,2013-04-18 20:55:00
2:15 PM,71.6,3.2,7,30.11,10.0,NW,4.6,-,N/A,,Clear,310,2013-04-18 21:15:00
2:35 PM,71.6,1.4,6,30.10,10.0,Calm,Calm,-,N/A,,Clear,0,2013-04-18 21:35:00
2:55 PM,71.6,1.4,6,30.09,10.0,WSW,3.5,-,N/A,,Clear,240,2013-04-18 21:55:00
3:15 PM,73.4,1.4,6,30.09,10.0,West,10.4,-,N/A,,Clear,280,2013-04-18 22:15:00
3:35 PM,73.4,1.4,6,30.08,9.0,Calm,Calm,-,N/A,,Clear,0,2013-04-18 22:35:00
3:55 PM,73.4,1.4,6,30.07,10.0,NW,8.1,-,N/A,,Clear,310,2013-04-18 22:55:00
4:15 PM,73.4,1.4,6,30.07,10.0,NNW,6.9,-,N/A,,Clear,330,2013-04-18 23:15:00
4:35 PM,73.4,1.4,6,30.07,10.0,Calm,Calm,-,N/A,,Clear,0,2013-04-18 23:35:00
4:55 PM,73.4,1.4,6,30.07,10.0,NW,5.8,-,N/A,,Clear,320,2013-04-18 23:55:00
5:15 PM,73.4,1.4,6,30.07,10.0,NW,5.8,-,N/A,,Clear,320,2013-04-19 00:15:00
5:35 PM,73.4,1.4,6,30.07,10.0,West,3.5,-,N/A,,Clear,280,2013-04-19 00:35:00
5:55 PM,73.4,1.4,6,30.07,10.0,SW,5.8,-,N/A,,Clear,230,2013-04-19 00:55:00
6:15 PM,71.6,14.0,11,30.07,10.0,SSW,6.9,-,N/A,,Clear,200,2013-04-19 01:15:00
6:35 PM,69.8,17.6,14,30.07,10.0,SSW,8.1,-,N/A,,Clear,200,2013-04-19 01:35:00
7:55 PM,64.4,17.6,16,30.10,10.0,South,4.6,-,N/A,,Clear,190,2013-04-19 02:55:00
8:35 PM,62.6,19.4,19,30.11,10.0,South,5.8,-,N/A,,Clear,190,2013-04-19 03:35:00
8:55 PM,62.6,12.2,14,30.11,10.0,WSW,8.1,-,N/A,,Clear,240,2013-04-19 03:55:00
9:15 PM,59.0,10.4,15,30.11,10.0,West,8.1,-,N/A,,Clear,270,2013-04-19 04:15:00
9:35 PM,62.6,8.6,12,30.11,10.0,WNW,9.2,-,N/A,,Clear,290,2013-04-19 04:35:00
9:55 PM,62.6,6.8,11,30.12,10.0,WNW,9.2,-,N/A,,Clear,290,2013-04-19 04:55:00
10:15 PM,59.0,6.8,13,30.12,10.0,NW,6.9,-,N/A,,Clear,320,2013-04-19 05:15:00
10:35 PM,57.2,6.8,13,30.12,10.0,NW,8.1,-,N/A,,Clear,310,2013-04-19 05:35:00
10:55 PM,57.2,6.8,13,30.11,10.0,NW,10.4,-,N/A,,Clear,320,2013-04-19 05:55:00
11:15 PM,57.2,6.8,13,30.12,10.0,NNW,8.1,-,N/A,,Clear,340,2013-04-19 06:15:00
11:35 PM,55.4,3.2,12,30.13,10.0,NNW,10.4,-,N/A,,Clear,340,2013-04-19 06:35:00
11:55 PM,55.4,6.8,14,30.13,7.0,NNW,9.2,-,N/A,,Clear,340,2013-04-19 06:55:00